TimeCEST,TemperatureF,Dew PointF,Humidity,Sea Level PressureIn,VisibilityMPH,Wind Direction,Wind SpeedMPH,Gust SpeedMPH,PrecipitationIn,Events,Conditions,WindDirDegrees,DateUTC
6:00 AM,44.6,42.8,93,30.09,-9999.0,Variable,1.2,-,N/A,,Clear,0,2012-10-04 04:00:00
6:30 AM,46.4,44.6,93,30.09,-9999.0,Variable,2.3,-,N/A,,Clear,0,2012-10-04 04:30:00
7:00 AM,46.4,44.6,93,30.09,-9999.0,South,2.3,-,N/A,,Clear,180,2012-10-04 05:00:00
7:30 AM,46.4,42.8,87,30.09,-9999.0,Calm,Calm,-,N/A,,Clear,0,2012-10-04 05:30:00
8:00 AM,44.6,42.8,93,30.09,-9999.0,Calm,Calm,-,N/A,,Clear,0,2012-10-04 06:00:00
8:30 AM,42.8,41.0,93,30.09,-9999.0,Variable,2.3,-,N/A,,Clear,0,2012-10-04 06:30:00
9:00 AM,42.8,41.0,93,30.12,-9999.0,Variable,2.3,-,N/A,,Clear,0,2012-10-04 07:00:00
9:30 AM,48.2,46.4,93,30.12,-9999.0,Variable,1.2,-,N/A,,Clear,0,2012-10-04 07:30:00
10:00 AM,53.6,46.4,77,30.12,-9999.0,Calm,Calm,-,N/A,,Clear,0,2012-10-04 08:00:00
10:30 AM,55.4,46.4,72,30.12,-9999.0,Calm,Calm,-,N/A,,Clear,0,2012-10-04 08:30:00
11:00 AM,57.2,46.4,67,30.12,-9999.0,Variable,1.2,-,N/A,,Clear,0,2012-10-04 09:00:00
11:30 AM,59.0,48.2,67,30.12,-9999.0,SSE,3.5,-,N/A,,Clear,150,2012-10-04 09:30:00
12:00 PM,62.6,48.2,59,30.12,-9999.0,South,1.2,-,N/A,,Clear,170,2012-10-04 10:00:00
12:30 PM,64.4,48.2,56,30.12,-9999.0,South,1.2,-,N/A,,Clear,170,2012-10-04 10:30:00
1:00 PM,66.2,48.2,52,30.12,-9999.0,SSE,3.5,-,N/A,,Clear,160,2012-10-04 11:00:00
1:30 PM,66.2,48.2,52,30.12,-9999.0,SSE,3.5,-,N/A,,Clear,150,2012-10-04 11:30:00
2:00 PM,68.0,46.4,46,30.12,-9999.0,SW,1.2,-,N/A,,Clear,230,2012-10-04 12:00:00
2:30 PM,68.0,46.4,46,30.09,-9999.0,SSE,1.2,-,N/A,,Clear,150,2012-10-04 12:30:00
3:00 PM,69.8,44.6,40,30.09,-9999.0,SW,2.3,-,N/A,,Clear,230,2012-10-04 13:00:00
3:30 PM,69.8,44.6,40,30.09,-9999.0,SW,3.5,-,N/A,,Clear,230,2012-10-04 13:30:00
4:00 PM,69.8,44.6,40,30.06,-9999.0,NNE,1.2,-,N/A,,Clear,30,2012-10-04 14:00:00
4:30 PM,71.6,41.0,33,30.06,-9999.0,SE,2.3,-,N/A,,Clear,140,2012-10-04 14:30:00
5:00 PM,71.6,41.0,33,30.06,-9999.0,SSW,1.2,-,N/A,,Clear,200,2012-10-04 15:00:00
5:30 PM,71.6,39.2,31,30.06,-9999.0,WSW,2.3,-,N/A,,Clear,250,2012-10-04 15:30:00
6:00 PM,71.6,39.2,31,30.06,-9999.0,Variable,2.3,-,N/A,,Clear,0,2012-10-04 16:00:00
6:30 PM,71.6,39.2,31,30.06,-9999.0,Variable,1.2,-,N/A,,Clear,0,2012-10-04 16:30:00
7:00 PM,71.6,39.2,31,30.06,-9999.0,Variable,2.3,-,N/A,,Clear,0,2012-10-04 17:00:00
7:30 PM,69.8,39.2,33,30.06,-9999.0,Calm,Calm,-,N/A,,Clear,0,2012-10-04 17:30:00
8:00 PM,66.2,41.0,40,30.06,-9999.0,East,2.3,-,N/A,,Clear,100,2012-10-04 18:00:00
8:30 PM,62.6,41.0,45,30.06,-9999.0,Variable,1.2,-,N/A,,Clear,0,2012-10-04 18:30:00
9:00 PM,60.8,42.8,52,30.06,-9999.0,Variable,1.2,-,N/A,,Clear,0,2012-10-04 19:00:00
9:30 PM,57.2,42.8,59,30.06,-9999.0,North,3.5,-,N/A,,Clear,350,2012-10-04 19:30:00
10:00 PM,57.2,42.8,59,30.06,-9999.0,North,3.5,-,N/A,,Clear,350,2012-10-04 20:00:00
10:30 PM,55.4,42.8,63,30.06,-9999.0,North,4.6,-,N/A,,Clear,360,2012-10-04 20:30:00